Skip Page Navigation
NASA JPL Caltech
NASA Logo - Jet Propulsion Laboratory + View the NASA Portal
+ Center for Near-Earth Object Studies
JPL Home Earth Solar System Stars & Galaxies Technology
JPL Solar System Dynamics
BODIES ORBITS EPHEMERIDES TOOLS PHYSICAL DATA DISCOVERY FAQ SITE MAP
IMPORTANT: The SSD Announcement email list is now available. Major changes are coming in the near future, including possible hostname and/or URL changes. To be notified of such changes, subscribe to this email list.

Please visit this page for more details.


JPL Small-Body Database Browser
Search: [ help ]  
110000 (2001 SM63)
Classification: Main-belt Asteroid          SPK-ID: 2110000
Ephemeris | Orbit Diagram | Orbital Elements | Mission Design | Physical Parameters | Discovery Circumstances | Close-Approach Data ]

[ show orbit diagram ]
Orbital Elements at Epoch 2458600.5 (2019-Apr-27.0) TDB
Reference: JPL 16 (heliocentric ecliptic J2000)
 Element Value Uncertainty (1-sigma)   Units 
e .05972414121728591 6.1806e-08  
a 2.591479680524411 1.657e-08 au
q 2.436705782123044 1.6033e-07 au
i 6.698289304463718 7.0301e-06 deg
node 32.27755509808419 4.3229e-05 deg
peri 333.8596232777633 6.2189e-05 deg
M 90.70949924023598 4.786e-05 deg
tp 2458216.553770109733
(2018-Apr-08.05377011)
0.00020108 TDB
period 1523.77252568037
4.17
1.4615e-05
4.001e-08
d
yr
n .2362557362945356 2.266e-09 deg/d
Q 2.746253578925778 1.756e-08 au
  Orbit Determination Parameters
   # obs. used (total)      422  
   data-arc span      10160 days (27.82 yr)  
   first obs. used      1991-04-09  
   last obs. used      2019-02-01  
   planetary ephem.      DE431  
   SB-pert. ephem.      SB431-N16  
   condition code      0  
   norm. resid. RMS      .60999  
   source      ORB  
   producer      Otto Matic  
   solution date      2019-Jul-13 09:45:27  

Additional Information
 Earth MOID = 1.43683 au 
 Jupiter MOID = 2.51663 au 
 T_jup = 3.407 
[ show covariance matrix ]

Ephemeris | Orbit Diagram | Orbital Elements | Mission Design | Physical Parameters | Discovery Circumstances | Close-Approach Data ]

Physical Parameter Table
Parameter Symbol Value Units Sigma Reference Notes
absolute magnitude H 15.8   n/a MPO417565  

110000 (2001 SM63)          Discovered 2001-Sep-17 by LINEAR at Socorro
Reference: 20051019/Numbers.arcLast Updated: 2005-10-26

[ show close-approach data ]
Ephemeris | Orbit Diagram | Orbital Elements | Mission Design | Physical Parameters | Discovery Circumstances | Close-Approach Data ]
ABOUT SSD CREDITS/AWARDS PRIVACY/COPYRIGHT GLOSSARY LINKS
FirstGov 2019-Dec-09 08:39 UT
(server date/time)  
NASA Home Page
Site Manager:   Ryan S. Park
Webmaster  Alan B. Chamberlin